Regional Weather Roundup
Issued by NWS State College, PA

Home | Current Version | Previous Version | Text Only | Print | Product List | Glossary On
Versions: 1 2 3 4 5 6 7 8 9 10 11 12 13 14 15 16 17 18 19 20 21 22 23 24 25 26 27 28 29 30 31 32 33 34 35 36 37 38 39 40 41 42 43 44 45 46 47 48 49 50
000
ASUS41 KCTP 111410
RWRCTP

REGIONAL WEATHER ROUNDUP
NATIONAL WEATHER SERVICE STATE COLLEGE PA
900 AM EST SUN DEC 11 2016

Note: "fair" indicates few or no clouds below 12,000 feet with no
significant weather and/or obstructions to visibility.

* = STATION THAT DOES NOT REPORT PRECIPITATION /E.G. RAIN...SNOW...ETC/
    THUNDER OR FOG.

PAZ002>004-007>009-013>016-020>023-029>032-111500-
WESTERN PENNSYLVANIA

CITY           SKY/WX    TMP DP  RH WIND       PRES   REMARKS
ERIE           CLOUDY    25  19  78 S13       30.35S WCI  14
MEADVILLE      LGT SNOW  21  18  88 VRB5      30.31F VSB 1   WCI  15
FRANKLIN*        N/A     21  14  73 S13       30.34R WCI   9
NEW CASTLE     LGT SNOW  23  21  92 VRB6      30.36F VSB 1
BEAVER COUNTY  NOT AVBL
BUTLER*        CLOUDY    21  18  86 SE6       30.37F WCI  14
PITTSBURGH INT LGT SNOW  25  21  85 SE7       30.35F FOG
PITTSBURGH     CLOUDY    23  19  85 SE7       30.35F FOG     WCI  15
INDIANA*       CLOUDY    23  19  86 SE8       30.40F WCI  14
LATROBE        PTSUNNY   25  21  86 CALM      30.39F
WASHINGTON CO* CLOUDY    23  19  86 SE5       30.35F
$$

PAZ004>006-010>012-017>019-024>028-033>037-041-042-045-046-049>053-111500-
CENTRAL PENNSYLVANIA

CITY           SKY/WX    TMP DP  RH WIND       PRES   REMARKS
BRADFORD       LGT SNOW  18  16  92 S6        30.30S FOG     WCI  10
DUBOIS         CLOUDY    20  16  84 SE6       30.33S FOG     WCI  12
CLEARFIELD     LGT SNOW  21  20  96 CALM      30.38R FOG
JOHNSTOWN      CLOUDY    20  17  88 SE7       30.32R WCI  11
ALTOONA        LGT SNOW  23  19  85 SW5       30.41R FOG
STATE COLLEGE  LGT SNOW  21  19  93 SE6       30.41F WCI  14
WILLIAMSPORT   LGT SNOW  24  20  84 E7        30.48F FOG
SELINSGROVE    LGT SNOW  25  22  88 S6        30.51F FOG
FT INDIANTOWN  LGT SNOW  25  19  80 S3        30.53S
CAPITAL CITY   LGT SNOW  28  18  66 S8        30.53S
HARRISBURG     LGT SNOW  28  20  71 VRB6      30.54R
YORK           LGT SNOW  26  21  81 VRB3      30.53R
$$

PAZ038>040-043-044-047-048-054-055-060>062-067>071-111500-
EASTERN PENNSYLVANIA

CITY           SKY/WX    TMP DP  RH WIND       PRES   REMARKS
SCRANTON       CLOUDY    24  17  74 VRB3      30.48R
MOUNT POCONO   CLOUDY    19  13  77 W5        30.41R WCI  12
ALLENTOWN      CLOUDY    28  17  63 W5        30.55R
QUAKERTOWN*    CLOUDY    27  18  69 SW3       30.55R
READING        CLOUDY    28  16  60 SW6       30.55R
LANCASTER      CLOUDY    27  22  81 CALM      30.55R
COATESVILLE    CLOUDY    27  16  63 CALM      30.56R
POTTSTOWN      CLOUDY    26  16  65 SW3       30.59R
BLUE BELL      CLOUDY    28  18  64 W3        30.57R
DOYLESTOWN     CLOUDY    28  17  63 SW5       30.55R
WILLOW GROVE   NOT AVBL
NORTH PHILA    CLOUDY    31  15  52 SW3       30.59R
PHILADELPHIA   CLOUDY    30  15  53 W6        30.60R
$$




USA.gov is the U.S. government's official web portal to all federal, state and local government web resources and services.